DELTA 1 DEB, 7071

Orbit data source: Space-Track

DELTA 1 DEB, 7071 is space debris in SSO originally from a launch on Tue, 06 Nov 1973 UTC launched from the Air Force Western Test Range (AFWTR). Debris objects in space refer to the collection of defunct objects orbiting the Earth. Examples of debris include non-operational satellites, rocket bodies, and fragments generated from explosions, collisions, or faulty payload assembly.

Loading next visibility...
Identifier
7071, 1973-086BP
Orbit
SSO
Country
Flag of USUS
Related business
Manufacturer
Unknown
Mission
Spacecraft
Bus & Motor
Unknown
Mass
Unknown
Launch date (UTC)
1973-11-06 (52 years ago)
Launch vehicle
Unknown
Launch site
Air Force Western Test Range (AFWTR)
Object type
Payload
Rocket body
Debris
Shape & HBR
Unknown shape, 0.4 m
Radar Cross Section
Medium (>0.1 m² and <1 m²)

Expand to show TLE details & history
Last TLE update: 8 hours ago

TLE from 8 hours ago
0 DELTA 1 DEB
1  7071U 73086BP  26124.39482093 -.00000026  00000-0  12498-3 0  9998
2  7071 101.6234 108.5707 0006322 170.2450 354.8783 12.41167891377683
Epoch: 2026-05-04T09:28Z
TLE epoch observation values (Epoch: 2026-05-04T09:28:32.528Z)
Latitude
14.54793°
Longitude
-72.80454°
Altitude
1,498.556 km
Speed
7.118 km/s
True Right ascension
19h 26m 27s
True Declination
14° 28' 21"
Sunlit
Object was in daylight at epoch
Visualization orbit readout
Latitude
Unknown
Longitude
Unknown
Altitude
Unknown
Speed
Unknown
Apparent Right ascension
Unknown
Apparent Declination
Unknown
Sunlit
N/A
Visualization observer readout
Local Sidereal Time
01:33:08
Azimuth
Unknown
Elevation
Unknown
Doppler factor
Unknown
Orbital elements
Apogee altitude
1,504.187 km
Perigee altitude
1,494.227 km
Semi-major axis
7,877.344 km
Eccentricity
0.00063
Inclination
101.6234°
RAAN
108.5707°
Arg. of periapsis
170.245°
True anomaly
354.87183°
Mean anomaly
354.8783°
Eccentric anomaly
354.87506°
Mean motion
3.10437 °/min
Orbital period
115.97 mins
BSTAR
0.00012498
Loading maneuver chart data...
Computing Atmospheric mass density...
Loading historical data...
Loading historical data...
Loading historical data...
Loading historical data...
Loading historical data...
Loading historical data...
Loading historical data...

Documentation

Showing up to 5 results
|